This is the latest recevied weather packets stored in our database for station/object W3BRL. If no packets are shown the sender has not sent any weather packets the latest 10 day(s).
| Time | Temp. | Humidity | Pressure | Rain* | Wind** | Luminosity | Snow |
|---|---|---|---|---|---|---|---|
| 1777834900 | 13.89° C | 32% | 1013 hPa | 0 mm | - | 884 W/m² | - |
| 1777834597 | 13.33° C | 33% | 1013.1 hPa | 0 mm | - | 231 W/m² | - |
| 1777834292 | 13.33° C | 34% | 1013.3 hPa | 0 mm | - | 275 W/m² | - |
| 1777833987 | 12.78° C | 35% | 1013.3 hPa | 0 mm | - | 914 W/m² | - |
| 1777833684 | 13.89° C | 34% | 1013.3 hPa | 0 mm | - | 234 W/m² | - |
| 1777833381 | 13.89° C | 33% | 1013.3 hPa | 0 mm | - | 939 W/m² | - |
| 1777833078 | 13.33° C | 34% | 1013.4 hPa | 0 mm | - | 880 W/m² | - |
| 1777832776 | 13.89° C | 33% | 1013.4 hPa | 0 mm | - | 314 W/m² | - |
| 1777832474 | 13.89° C | 32% | 1013.5 hPa | 0 mm | - | 873 W/m² | - |
| 1777832171 | 13.33° C | 33% | 1013.4 hPa | 0 mm | - | 887 W/m² | - |
| 1777831868 | 12.78° C | 34% | 1013.4 hPa | 0 mm | - | 871 W/m² | - |
| 1777831565 | 12.22° C | 35% | 1013.6 hPa | 0 mm | - | 853 W/m² | - |
| 1777831263 | 12.78° C | 35% | 1013.5 hPa | 0 mm | - | 286 W/m² | - |
| 1777830959 | 12.78° C | 33% | 1013.6 hPa | 0 mm | - | 500 W/m² | - |
| 1777830656 | 12.78° C | 33% | 1013.8 hPa | 0 mm | - | 894 W/m² | - |
| 1777830353 | 12.78° C | 33% | 1013.8 hPa | 0 mm | - | 265 W/m² | - |
| 1777830050 | 13.33° C | 33% | 1013.8 hPa | 0 mm | - | 330 W/m² | - |
| 1777829745 | 12.78° C | 33% | 1013.9 hPa | 0 mm | - | 910 W/m² | - |
| 1777829441 | 12.22° C | 33% | 1014.1 hPa | 0 mm | - | 874 W/m² | - |
| 1777829139 | 12.22° C | 34% | 1013.9 hPa | 0 mm | - | 916 W/m² | - |
| 1777828836 | 12.22° C | 35% | 1013.9 hPa | 0 mm | - | 209 W/m² | - |
| 1777828532 | 11.67° C | 35% | 1014.1 hPa | 0 mm | - | 883 W/m² | - |
| 1777828230 | 12.22° C | 34% | 1014 hPa | 0 mm | - | 853 W/m² | - |
| 1777827926 | 12.78° C | 33% | 1014.3 hPa | 0 mm | - | 603 W/m² | - |
| 1777827624 | 12.78° C | 32% | 1014.1 hPa | 0 mm | - | 921 W/m² | - |
* Rain latest hour (hover to see other rain measurements)
** Current wind speed in m/s (hover to see current wind gust speed)